CDT,Max TemperatureF,Mean TemperatureF,Min TemperatureF,Max Dew PointF,MeanDew PointF,Min DewpointF,Max Humidity, Mean Humidity, Min Humidity, Max Sea Level PressureIn, Mean Sea Level PressureIn, Min Sea Level PressureIn, Max VisibilityMiles, Mean VisibilityMiles, Min VisibilityMiles, Max Wind SpeedMPH, Mean Wind SpeedMPH, Max Gust SpeedMPH,PrecipitationIn, CloudCover, Events, WindDirDegrees
2011-10-1,71,55,39,41,36,30,93,56,22,30.32,30.25,30.19,10,9,1,13,3,,0.00,0,,137
2011-10-2,78,60,42,43,38,32,93,52,18,30.25,30.19,30.11,10,10,10,13,3,18,0.00,0,,159
2011-10-3,82,63,44,45,40,32,93,53,16,30.19,30.15,30.09,10,10,10,18,4,25,0.00,0,,137
2011-10-4,91,75,59,59,47,41,59,41,24,30.13,30.08,30.01,10,10,10,14,5,21,0.03,0,,157
2011-10-5,84,70,55,52,43,30,77,44,14,30.09,30.04,29.96,10,10,10,20,6,28,0.00,0,,149
2011-10-6,82,70,59,46,43,41,59,39,23,30.00,29.93,29.85,10,10,10,29,11,39,0.00,1,,141
2011-10-7,82,75,68,57,52,46,50,44,39,29.96,29.91,29.88,10,10,10,25,15,33,0.00,4,,164
2011-10-8,78,73,68,61,54,50,78,52,42,30.06,30.01,29.96,10,10,10,20,13,24,0.00,6,Rain-Thunderstorm,162
2011-10-9,82,70,57,59,54,43,94,62,25,30.14,30.09,30.00,10,10,1,22,5,31,0.00,4,,142
2011-10-10,73,65,55,59,52,43,88,69,35,30.06,30.00,29.93,10,10,10,10,3,16,0.04,4,Rain,183
2011-10-11,78,64,50,55,49,45,94,66,30,29.95,29.85,29.74,10,10,7,18,5,28,0.00,2,Thunderstorm,151
2011-10-12,68,62,57,55,53,46,94,73,49,29.78,29.72,29.69,10,9,2,10,3,20,0.53,6,Rain-Thunderstorm,307
2011-10-13,73,62,50,45,37,28,71,44,20,29.86,29.81,29.76,10,10,10,21,10,30,0.00,0,,314
2011-10-14,60,54,48,37,32,27,66,45,27,30.00,29.94,29.84,10,10,10,24,8,32,0.00,3,,310
2011-10-15,73,55,37,41,34,27,87,54,21,30.07,29.96,29.75,10,10,7,15,2,22,0.00,0,,191
2011-10-16,64,57,48,45,36,27,67,48,26,30.08,29.97,29.71,10,10,10,14,5,22,0.00,0,Thunderstorm,338
2011-10-17,50,46,41,43,38,34,87,73,62,30.06,30.03,30.00,10,10,2,13,2,20,0.15,6,Rain,308
2011-10-18,53,47,41,37,29,16,70,51,22,30.10,30.05,29.99,10,10,10,17,10,30,0.00,2,,330
2011-10-19,48,40,33,25,23,21,70,52,34,30.14,30.09,30.06,10,10,10,15,7,24,0.00,0,,337
2011-10-20,53,43,33,32,29,27,87,64,38,30.09,30.05,30.02,10,10,10,12,6,16,0.00,1,,315
2011-10-21,69,50,32,41,32,30,100,63,25,30.11,30.07,30.02,10,10,7,8,1,,0.00,0,,209
2011-10-22,60,50,41,52,43,37,94,76,45,30.13,30.10,30.04,10,9,2,5,0,,0.06,3,Rain,102
2011-10-23,78,58,37,50,40,34,94,64,20,30.02,29.95,29.86,10,6,0,14,2,20,0.01,3,Fog,276
2011-10-24,78,60,41,41,37,30,93,55,18,30.11,30.00,29.81,10,10,10,15,3,22,0.00,0,,161
2011-10-25,73,65,57,48,43,37,59,43,33,29.89,29.74,29.68,10,10,10,18,7,29,0.00,0,,211
2011-10-26,51,48,46,39,35,32,71,59,50,30.14,30.08,30.03,10,10,10,14,8,21,0.00,5,,338
2011-10-27,57,45,33,32,28,18,93,56,23,30.17,30.13,30.09,10,10,7,17,5,24,0.00,2,,304
2011-10-28,59,46,32,32,24,10,87,53,17,30.21,30.16,30.13,10,10,10,17,3,29,0.00,0,,327
2011-10-29,62,46,30,30,26,23,87,56,22,30.15,30.01,29.82,10,10,10,17,3,24,0.00,0,,146
2011-10-30,60,53,46,34,26,18,62,37,19,30.05,29.97,29.82,10,10,10,21,9,33,0.00,2,,312
2011-10-31,64,47,30,32,27,21,87,54,20,30.09,30.01,29.91,10,10,7,13,2,20,0.00,0,,146